Hourly Data Report for July 21, 2013

All times are specified in Local Standard Time (LST). Add 1 hour to adjust for Daylight Saving Time where and when it is observed.

VICTORIA INTL A
BRITISH COLUMBIA

48°38'50.000" N
123°25'33.000" W
19.50 m
1018621
71799
YYJ

Download Data

Hourly Data (July 2013)
Hourly Data Report for July 21, 2013
Temp Definition
°C
Dew Point Temp Definition
°C
Rel Hum Definition
%
Wind Dir Definition
10's deg

Wind Spd Definition
km/h
Visibility Definition
km
Stn Press Definition
kPa
Hmdx Definition


Wind Chill Definition


Weather Definition


TIME
00:00 13.0 11.4 90 11 5 48.3 101.21     LegendNANA
01:00 12.3 11.1 92 9 4 48.3 101.19     Clear
02:00 12.2 11.3 94 11 6 48.3 101.19     LegendNANA
03:00 12.1 11.2 94 12 6 48.3 101.19     LegendNANA
04:00 11.9 11.1 95 13 3 48.3 101.19     Clear
05:00 11.4 10.9 97 19 3 48.3 101.21     LegendNANA
06:00 12.8 11.6 92 13 7 48.3 101.24     LegendNANA
07:00 13.9 12.0 88 12 9 48.3 101.25     Clear
08:00 14.8 11.6 81 12 10 48.3 101.27     LegendNANA
09:00 15.9 11.9 77 12 13 48.3 101.26     LegendNANA
10:00 17.3 12.3 72 13 17 48.3 101.24     Clear
11:00 17.1 12.5 74 14 21 48.3 101.24     LegendNANA
12:00 16.9 12.5 75 13 21 48.3 101.23     LegendNANA
13:00 16.9 12.9 77 13 25 48.3 101.21     Clear
14:00 17.4 12.4 72 13 22 48.3 101.17     LegendNANA
15:00 16.8 12.4 75 12 26 48.3 101.15     LegendNANA
16:00 16.2 12.2 77 12 26 48.3 101.08     Clear
17:00 15.9 11.9 77 12 23 48.3 101.05     LegendNANA
18:00 16.5 12.3 76 8 12 48.3 101.03     LegendNANA
19:00 17.2 12.8 75 5 9 48.3 101.03     Clear
20:00 14.4 11.8 84 5 8 48.3 101.05     LegendNANA
21:00 13.8 11.7 87 2 4 48.3 101.10     LegendNANA
22:00 14.2 11.7 85 12 1 48.3 101.12     Clear
23:00 13.8 11.5 86 8 7 48.3 101.13     LegendNANA

Notes on Data Quality.

Legend

  • E = Estimated
  • M = Missing
  • NA = Not Available
Date modified: